• In Deutschland
  • Länderverzeichnis
  • Für 7 Tage
  • Wassertemperatur
  • Satellitenkarten
  • Wetterkarte
  • Widgets
  • user-avatar
    Anmelden

    Stündliche Wetter Weißwasser

    Heute, 20 Juli, Freitag

    Zeit Temperatur Niederschläge Wind Luftdruck Luftfeuchtigkeit
    00:00 +18°C° 0 mm 1 m/S 750 mmHg 89%
    01:00 +18°C° 0 mm 1 m/S 750 mmHg 90%
    02:00 +16°C° 0 mm 1 m/S 750 mmHg 89%
    03:00 +16°C° 0 mm 1 m/S 750 mmHg 89%
    04:00 +15°C° 0 mm 1 m/S 749 mmHg 89%
    05:00 +18°C° 0 mm 1 m/S 750 mmHg 81%
    06:00 +19°C° 0 mm 1 m/S 750 mmHg 74%
    07:00 +21°C° 0 mm 1 m/S 750 mmHg 67%
    08:00 +22°C° 0 mm 1 m/S 750 mmHg 60%
    09:00 +24°C° 0 mm 2 m/S 750 mmHg 52%
    10:00 +26°C° 0 mm 2 m/S 750 mmHg 45%
    11:00 +26°C° 0 mm 2 m/S 749 mmHg 44%
    12:00 +27°C° 0 mm 2 m/S 749 mmHg 43%
    13:00 +27°C° 0 mm 3 m/S 749 mmHg 42%
    14:00 +27°C° 0 mm 3 m/S 749 mmHg 42%
    15:00 +27°C° 0 mm 2 m/S 748 mmHg 42%
    16:00 +27°C° 0 mm 2 m/S 748 mmHg 42%
    17:00 +26°C° 0 mm 2 m/S 748 mmHg 47%
    18:00 +25°C° 0 mm 2 m/S 748 mmHg 52%
    19:00 +24°C° 0 mm 1 m/S 748 mmHg 57%
    20:00 +23°C° 0 mm 1 m/S 748 mmHg 60%
    21:00 +21°C° 0 mm 1 m/S 748 mmHg 63%
    22:00 +20°C° 0 mm 1 m/S 748 mmHg 67%
    23:00 +19°C° 0 mm 1 m/S 748 mmHg 69%

    Morgen, 21 Juli, Samstag

    Zeit Temperatur Niederschläge Wind Luftdruck Luftfeuchtigkeit
    00:00 +19°C° 0 mm 1 m/S 748 mmHg 71%
    01:00 +18°C° 0 mm 1 m/S 748 mmHg 73%
    02:00 +18°C° 0 mm 1 m/S 748 mmHg 74%
    03:00 +16°C° 0 mm 1 m/S 748 mmHg 75%
    04:00 +16°C° 0 mm 1 m/S 748 mmHg 76%
    05:00 +19°C° 0 mm 1 m/S 748 mmHg 71%
    06:00 +21°C° 0 mm 1 m/S 748 mmHg 66%
    07:00 +20°C° 0 mm 0 m/S 748 mmHg 61%
    08:00 +24°C° 0 mm 1 m/S 748 mmHg 55%
    09:00 +26°C° 0 mm 1 m/S 748 mmHg 49%
    10:00 +28°C° 0 mm 1 m/S 748 mmHg 43%
    11:00 +28°C° 0 mm 1 m/S 747 mmHg 41%
    12:00 +29°C° 0 mm 1 m/S 747 mmHg 38%
    13:00 +29°C° 0 mm 1 m/S 747 mmHg 36%
    14:00 +29°C° 0 mm 2 m/S 747 mmHg 35%
    15:00 +29°C° 0 mm 2 m/S 747 mmHg 35%
    16:00 +29°C° 0 mm 2 m/S 746 mmHg 34%
    17:00 +28°C° 0 mm 2 m/S 746 mmHg 40%
    18:00 +26°C° 0 mm 2 m/S 746 mmHg 46%
    19:00 +25°C° 0 mm 2 m/S 746 mmHg 51%
    20:00 +24°C° 0 mm 2 m/S 747 mmHg 54%
    21:00 +21°C° 0 mm 2 m/S 747 mmHg 57%
    22:00 +20°C° 0 mm 2 m/S 747 mmHg 61%
    23:00 +19°C° 0 mm 2 m/S 747 mmHg 64%

    übermorgen, 22 Juli, Sonntag

    Zeit Temperatur Niederschläge Wind Luftdruck Luftfeuchtigkeit
    00:00 +19°C° 0 mm 2 m/S 747 mmHg 68%
    01:00 +19°C° 0 mm 1 m/S 747 mmHg 72%
    02:00 +18°C° 0 mm 1 m/S 747 mmHg 74%
    03:00 +18°C° 0 mm 1 m/S 747 mmHg 76%
    04:00 +18°C° 0 mm 1 m/S 747 mmHg 79%
    05:00 +19°C° 0 mm 1 m/S 747 mmHg 74%
    06:00 +20°C° 0 mm 1 m/S 747 mmHg 70%
    07:00 +22°C° 0 mm 1 m/S 747 mmHg 66%
    08:00 +23°C° 0 mm 1 m/S 747 mmHg 59%
    09:00 +25°C° 0 mm 2 m/S 747 mmHg 52%
    10:00 +26°C° 0 mm 2 m/S 747 mmHg 45%
    11:00 +27°C° 0 mm 2 m/S 747 mmHg 41%
    12:00 +28°C° 0 mm 2 m/S 747 mmHg 37%
    13:00 +29°C° 0 mm 2 m/S 746 mmHg 33%
    14:00 +29°C° 0 mm 2 m/S 746 mmHg 33%
    15:00 +29°C° 0 mm 3 m/S 746 mmHg 32%
    16:00 +29°C° 0 mm 3 m/S 746 mmHg 32%
    17:00 +28°C° 0 mm 2 m/S 746 mmHg 38%
    18:00 +27°C° 0 mm 2 m/S 746 mmHg 44%
    19:00 +25°C° 0 mm 2 m/S 746 mmHg 50%
    20:00 +24°C° 0 mm 2 m/S 746 mmHg 54%
    21:00 +22°C° 0 mm 1 m/S 747 mmHg 59%
    22:00 +21°C° 0 mm 1 m/S 747 mmHg 63%
    23:00 +20°C° 0 mm 1 m/S 747 mmHg 67%

    23 Juli, Montag

    Zeit Temperatur Niederschläge Wind Luftdruck Luftfeuchtigkeit
    00:00 +19°C° 0 mm 1 m/S 747 mmHg 70%
    01:00 +19°C° 0 mm 1 m/S 747 mmHg 73%
    02:00 +17°C° 0 mm 0 m/S 747 mmHg 75%
    03:00 +16°C° 0 mm 0 m/S 747 mmHg 77%
    04:00 +16°C° 0 mm 0 m/S 747 mmHg 79%
    05:00 +17°C° 0 mm 0 m/S 747 mmHg 75%
    06:00 +21°C° 0 mm 1 m/S 747 mmHg 72%
    07:00 +22°C° 0 mm 1 m/S 747 mmHg 68%
    08:00 +24°C° 0 mm 1 m/S 748 mmHg 63%
    09:00 +25°C° 0 mm 1 m/S 748 mmHg 57%
    10:00 +27°C° 0 mm 1 m/S 748 mmHg 52%
    11:00 +28°C° 0 mm 2 m/S 747 mmHg 48%
    12:00 +29°C° 0 mm 2 m/S 747 mmHg 45%
    13:00 +29°C° 0 mm 3 m/S 747 mmHg 41%
    14:00 +29°C° 0 mm 3 m/S 747 mmHg 43%
    15:00 +29°C° 0 mm 3 m/S 747 mmHg 44%
    16:00 +29°C° 0 mm 3 m/S 747 mmHg 46%
    17:00 +28°C° 0 mm 2 m/S 747 mmHg 50%
    18:00 +27°C° 0 mm 2 m/S 747 mmHg 55%
    19:00 +26°C° 0 mm 1 m/S 747 mmHg 60%
    20:00 +25°C° 0 mm 1 m/S 747 mmHg 63%
    21:00 +23°C° 0 mm 1 m/S 748 mmHg 66%
    22:00 +22°C° 0 mm 1 m/S 748 mmHg 70%
    23:00 +21°C° 0 mm 1 m/S 748 mmHg 73%

    24 Juli, Dienstag

    Zeit Temperatur Niederschläge Wind Luftdruck Luftfeuchtigkeit
    00:00 +20°C° 0 mm 1 m/S 748 mmHg 76%
    01:00 +20°C° 0 mm 1 m/S 748 mmHg 79%
    02:00 +19°C° 0 mm 1 m/S 748 mmHg 81%
    03:00 +19°C° 0 mm 1 m/S 748 mmHg 84%
    04:00 +18°C° 0 mm 1 m/S 748 mmHg 86%
    05:00 +20°C° 0 mm 1 m/S 748 mmHg 81%
    06:00 +21°C° 0 mm 1 m/S 748 mmHg 76%
    07:00 +23°C° 0 mm 1 m/S 748 mmHg 71%
    08:00 +24°C° 0 mm 1 m/S 748 mmHg 66%
    09:00 +25°C° 0 mm 2 m/S 748 mmHg 60%
    10:00 +27°C° 0 mm 2 m/S 748 mmHg 55%
    11:00 +27°C° 0,1 mm 2 m/S 747 mmHg 53%
    12:00 +28°C° 0,1 mm 2 m/S 747 mmHg 51%
    13:00 +29°C° 0,1 mm 2 m/S 747 mmHg 49%
    14:00 +28°C° 0 mm 2 m/S 747 mmHg 50%
    15:00 +28°C° 0 mm 2 m/S 747 mmHg 50%
    16:00 +28°C° 0 mm 2 m/S 746 mmHg 51%
    17:00 +27°C° 0 mm 2 m/S 746 mmHg 55%
    18:00 +27°C° 0 mm 1 m/S 746 mmHg 59%
    19:00 +26°C° 0 mm 1 m/S 746 mmHg 63%
    20:00 +24°C° 0 mm 1 m/S 746 mmHg 67%
    21:00 +23°C° 0 mm 1 m/S 747 mmHg 72%
    22:00 +20°C° 0 mm 0 m/S 747 mmHg 76%
    23:00 +19°C° 0 mm 0 m/S 747 mmHg 78%

    25 Juli, Mittwoch

    Zeit Temperatur Niederschläge Wind Luftdruck Luftfeuchtigkeit
    00:00 +19°C° 0 mm 0 m/S 747 mmHg 81%
    01:00 +18°C° 0 mm 0 m/S 747 mmHg 83%
    02:00 +18°C° 0 mm 0 m/S 747 mmHg 85%
    03:00 +18°C° 0 mm 0 m/S 747 mmHg 86%
    04:00 +17°C° 0 mm 0 m/S 747 mmHg 88%
    05:00 +19°C° 0 mm 0 m/S 747 mmHg 82%
    06:00 +22°C° 0 mm 1 m/S 748 mmHg 76%
    07:00 +24°C° 0 mm 1 m/S 748 mmHg 70%
    08:00 +25°C° 0 mm 1 m/S 748 mmHg 63%
    09:00 +27°C° 0 mm 1 m/S 748 mmHg 57%
    10:00 +28°C° 0 mm 2 m/S 748 mmHg 51%
    11:00 +29°C° 0,1 mm 2 m/S 747 mmHg 46%
    12:00 +30°C° 0,1 mm 2 m/S 747 mmHg 42%
    13:00 +31°C° 0,1 mm 2 m/S 747 mmHg 38%
    14:00 +31°C° 0 mm 2 m/S 747 mmHg 37%
    15:00 +31°C° 0 mm 2 m/S 747 mmHg 36%
    16:00 +31°C° 0 mm 2 m/S 747 mmHg 35%
    17:00 +30°C° 0 mm 2 m/S 747 mmHg 40%
    18:00 +29°C° 0 mm 2 m/S 747 mmHg 45%
    19:00 +28°C° 0 mm 1 m/S 747 mmHg 50%
    20:00 +26°C° 0 mm 1 m/S 747 mmHg 54%
    21:00 +24°C° 0 mm 1 m/S 747 mmHg 58%
    22:00 +23°C° 0 mm 1 m/S 748 mmHg 61%
    23:00 +22°C° 0 mm 1 m/S 748 mmHg 63%
    Mehr zeigen